Find Starlink 34275

NORAD ID: 64413 Int'l Des: 2025-129 Owner: SPXS Country: US Constellation: starlink operational
LEOCIRCULAR

当前视图

正在加载3D地球...

About Starlink 34275

Starlink 34275 (NORAD 64413) is a starlink constellation satellite (v2 mini) launched Jun 17, 2025 by SPXS of US. It operates in LEO, CIRCULAR orbit with a mass of 575.00 kg.

即将过境

Passes for default location (London). Set your location on the main map for personalized predictions.

高度历史

Loading altitude history...

两行轨道根数

1 64413U 25129B 26263.51914226 .00012289 00000-0 43123-3 0 9994
2 64413 70.0029 300.7218 0002618 241.5845 118.5067 15.29581717 70534
Epoch: Sep 20, 2026 • Age: 14 hours

当前状态

高度 480.0 km
远地点 / 近地点 N/A
速度 7.63 km/s
星下点 14.78°N, 95.16°W
发射日期 Jun 17, 2025
运行时间 1.2 years
类型 internet

技术详情

分类 Payload
质量 575.00 kg
干质量 530.00 kg
长度 0.30 m
跨度 29.00 m
形状 ? Box + pan
制造商 SPXS
平台类型 Starlink V2MO
阶段状态 In Orbit
所有者/国家 SPXS/US

Most Searched